Theta_e
355 352 351 349 348 345 344 339 316 324 323 314 316 320 317 331 331 329 325 330 326 335 337 339 338 338 332 332 330 333 332 322 325 310 308 332 348 350 352 354 356 356 356 357 358 359 358 361 364 365 365 365 365 365 365 366 366 366 365 364 365 365 365 365 365 364 365 365 365 365 364 363 364 363 363 362 362 362 362 362 361 363 364 363 363 363 362 364 363 363 362 363 362 362 362 362 362
353 350 350 349 345 343 332 339 319 319 320 315 316 323 324 330 329 326 326 328 332 332 338 339 338 339 341 337 336 334 331 334 337 335 339 346 349 350 355 356 356 355 356 357 359 358 359 362 365 366 365 365 365 366 366 366 366 365 365 365 364 364 364 364 364 365 364 364 364 364 364 364 363 362 362 362 362 361 362 362 362 361 361 362 363 363 363 363 363 363 363 363 363 363 363 363 363
351 349 347 347 344 343 339 337 315 316 312 309 314 321 330 325 324 327 331 332 335 337 339 338 339 337 336 337 330 330 323 339 339 340 339 347 343 348 354 356 357 357 357 358 359 360 360 362 364 365 365 364 365 366 366 366 366 365 365 365 364 364 364 364 364 364 363 364 364 364 364 363 363 363 362 362 362 362 361 361 363 363 363 362 362 363 363 363 363 363 363 363 363 363 362 362 362
350 350 345 344 334 343 328 325 319 316 311 312 314 325 325 326 326 330 334 337 337 338 337 333 332 339 337 329 330 335 332 334 341 340 338 343 344 352 354 356 358 358 358 359 360 360 361 363 365 366 364 365 366 366 366 366 365 364 364 364 363 363 363 363 364 364 364 364 363 362 363 364 364 363 363 363 363 363 363 363 363 362 362 362 362 362 363 362 362 362 362 363 362 361 361 362 362
351 356 354 344 337 326 327 322 321 320 312 316 315 326 328 329 329 331 335 336 338 337 335 336 334 338 339 334 335 328 330 339 341 345 342 347 353 354 355 357 357 357 357 359 361 361 361 365 365 365 364 366 365 365 365 365 364 364 364 364 364 364 364 365 364 364 364 364 363 363 362 363 363 363 362 362 363 362 363 363 362 362 361 362 362 362 363 363 363 363 363 363 362 361 361 362 362
354 352 356 349 331 342 331 319 317 317 321 325 321 325 329 331 331 333 334 336 337 338 339 336 332 331 331 334 338 333 339 331 341 344 346 347 353 355 356 357 356 356 358 359 360 360 362 366 365 365 366 365 366 365 365 364 364 364 364 363 364 364 364 365 364 364 364 364 364 362 363 364 364 363 363 364 364 362 362 362 362 362 361 362 363 362 362 363 363 363 363 361 361 361 361 362 362
346 347 346 343 340 338 319 318 316 320 325 328 328 329 331 332 334 333 333 333 338 337 339 336 335 332 327 333 337 341 346 346 343 344 349 351 354 355 356 355 355 355 357 358 360 361 362 365 365 366 365 365 365 365 365 364 364 364 364 364 365 365 364 363 363 362 365 364 364 363 363 363 363 364 364 363 363 363 363 363 362 361 361 361 362 362 361 362 362 363 363 362 361 361 361 360 361
355 341 338 326 323 327 318 319 318 323 325 332 333 333 334 334 336 333 333 332 330 332 334 334 336 330 327 338 329 341 346 347 347 350 352 353 354 354 354 353 352 354 356 358 360 361 365 364 365 365 365 365 365 365 365 365 365 364 364 365 365 365 363 363 362 363 365 364 364 364 364 363 363 363 364 363 363 362 362 363 363 362 362 362 361 362 362 362 362 363 363 362 362 362 361 361 361
346 342 341 327 318 324 320 318 320 329 328 332 333 338 339 338 338 334 332 334 334 335 331 332 333 327 329 332 331 340 343 347 350 353 353 353 352 352 352 352 352 352 355 357 359 361 361 365 365 365 365 365 364 365 364 364 364 364 365 365 366 365 364 363 364 363 363 364 364 364 363 363 363 364 363 363 363 363 362 362 363 362 363 362 361 361 362 362 362 363 363 362 361 361 361 361 361
340 344 326 325 323 315 319 319 319 325 328 333 334 336 337 337 334 338 334 332 334 332 334 335 335 329 333 329 333 338 341 348 350 350 352 352 351 351 351 352 353 352 353 355 358 360 361 365 365 365 365 364 364 364 364 365 364 364 365 365 365 364 364 364 363 364 364 364 364 363 364 364 364 364 363 364 363 362 362 363 363 362 363 363 362 361 362 362 362 362 362 362 362 362 361 361 361
333 342 342 323 316 313 313 316 322 326 328 333 335 339 340 339 337 333 335 334 334 331 333 336 331 331 332 332 334 344 347 348 347 346 350 351 350 350 352 353 353 353 354 357 359 361 361 361 366 365 365 364 364 364 365 364 365 365 365 365 365 364 365 365 364 363 364 364 363 363 362 363 364 363 364 363 363 363 362 362 363 363 363 362 361 361 362 362 363 363 362 361 361 361 362 362 362
330 330 331 318 317 316 318 318 322 326 328 332 332 338 342 338 337 332 331 329 331 331 331 335 329 336 330 331 334 342 345 346 346 347 349 350 349 353 353 353 354 356 358 359 360 360 360 361 362 365 365 365 364 364 364 365 366 365 364 365 365 365 364 364 365 364 364 364 363 363 363 364 364 363 364 364 363 363 362 362 362 362 362 362 362 362 362 362 361 363 362 362 362 361 360 360 360
330 330 323 319 319 319 321 322 323 324 326 329 329 337 343 337 335 336 334 334 334 330 331 338 337 337 327 330 338 342 342 344 346 348 349 349 351 354 355 355 357 358 359 360 359 359 360 360 361 362 363 365 364 365 365 365 365 365 365 365 365 365 365 365 365 364 363 364 363 362 363 364 364 364 364 363 363 362 362 362 363 362 363 363 362 362 362 360 361 361 361 363 362 361 360 360 361
330 331 325 316 326 323 322 322 327 320 321 331 337 340 340 337 336 337 337 331 331 332 336 338 337 337 331 334 335 337 341 345 347 349 349 350 354 355 355 356 356 357 359 359 358 359 359 360 361 360 361 361 361 363 365 365 365 365 365 365 365 366 366 366 364 364 365 364 363 364 364 363 364 364 364 363 363 363 363 362 362 362 362 362 362 362 362 363 363 363 364 362 362 361 360 362 362
331 337 326 321 319 324 327 321 324 322 320 331 336 338 337 340 341 338 336 330 332 339 339 342 339 334 325 329 330 335 341 345 347 349 349 353 354 354 353 354 356 357 358 358 359 358 358 359 360 360 361 360 361 361 361 363 366 366 366 365 365 366 365 364 365 365 365 364 364 364 363 363 363 363 363 363 363 364 363 362 362 362 362 362 362 362 362 363 363 363 364 363 362 361 361 362 362
338 335 326 318 315 319 322 324 327 325 323 335 338 340 338 339 342 337 336 339 337 342 340 333 340 336 335 332 334 340 344 346 348 348 351 351 352 352 352 354 355 356 357 357 358 358 358 358 359 359 359 360 360 360 360 361 363 365 366 366 366 365 364 365 365 364 364 364 364 364 364 363 363 361 363 362 363 364 364 361 362 362 362 362 362 362 363 363 364 364 365 364 363 361 362 362 362
341 336 320 316 314 321 324 325 328 319 331 335 340 338 331 334 341 345 347 342 337 337 336 338 336 340 336 337 341 345 345 347 348 348 348 347 348 349 351 351 352 353 354 356 356 357 358 358 358 358 359 359 360 360 360 360 363 364 365 366 366 365 365 365 365 364 363 364 364 365 364 359 359 359 360 359 363 362 362 363 362 363 362 362 362 362 363 363 363 364 364 363 363 362 361 362 362
336 324 318 314 318 320 325 326 328 332 329 332 334 338 335 332 338 341 344 338 339 337 336 338 339 339 340 342 345 346 345 345 345 344 344 344 346 345 347 348 350 349 351 352 355 357 358 358 358 358 358 359 359 360 360 361 361 363 361 362 362 362 363 364 362 361 366 361 365 361 357 360 356 356 359 363 362 362 361 364 363 363 362 362 363 363 363 363 363 363 363 363 362 362 363 359 359
328 324 320 314 321 324 333 332 333 332 332 336 337 339 337 335 340 341 335 333 335 332 334 335 335 336 340 342 343 343 343 343 343 342 342 343 343 343 344 347 347 349 350 351 353 356 357 357 358 358 358 358 358 359 360 360 360 359 359 360 361 364 363 364 360 362 358 358 357 357 359 357 357 359 360 363 365 363 363 363 363 363 362 362 362 363 363 363 363 363 364 364 364 363 356 355 354
330 323 318 318 327 330 337 336 333 335 337 335 336 335 339 337 337 339 336 334 334 330 328 332 332 332 336 339 341 341 341 341 341 340 342 342 343 344 344 345 346 348 349 351 353 356 356 356 357 358 357 358 357 358 359 358 358 358 358 359 359 359 359 361 358 358 357 357 358 358 357 357 357 357 364 365 364 360 360 363 363 363 363 363 363 365 363 363 363 364 364 363 363 360 354 354 354
323 321 316 319 328 327 333 340 335 337 340 336 335 335 335 336 337 338 335 330 330 331 335 333 331 332 335 338 339 339 339 340 339 340 341 341 343 345 345 346 347 348 349 352 354 354 355 356 357 357 358 358 357 358 358 357 358 357 357 357 357 357 358 358 358 358 358 358 357 358 357 357 358 358 357 358 355 357 355 356 357 357 356 358 363 354 357 360 357 354 355 357 353 354 353 352 354
323 321 323 325 330 327 335 338 337 335 340 338 336 333 333 339 337 338 337 327 325 331 334 337 335 335 335 336 337 338 338 338 338 338 339 340 341 343 345 346 348 349 351 351 352 354 355 357 357 357 357 357 357 357 356 359 359 356 356 357 356 357 357 357 357 358 358 358 357 359 359 356 356 355 355 355 355 355 355 354 356 356 355 355 359 352 354 353 353 353 353 353 351 353 353 352 354
316 320 324 325 331 331 336 337 336 337 335 335 334 338 341 336 333 336 337 334 339 339 339 338 337 337 338 338 337 336 337 337 337 337 339 340 341 342 344 345 345 347 350 350 352 354 355 356 356 357 356 356 356 357 357 359 357 357 356 357 356 356 356 357 356 355 354 354 356 357 355 354 354 354 355 355 354 353 353 353 354 356 354 354 358 352 353 354 354 353 352 352 352 353 353 352 354
320 316 321 325 331 333 337 333 336 337 338 335 339 341 336 335 330 338 334 337 341 342 338 338 338 338 338 336 336 335 336 337 337 338 340 340 341 342 344 344 346 349 350 351 352 354 355 355 356 356 355 355 355 356 356 357 356 356 356 361 358 359 357 357 355 352 352 352 356 356 359 353 352 353 355 354 353 352 352 352 354 354 355 354 359 356 353 353 353 353 353 351 352 352 354 353 353
317 317 320 328 331 337 335 334 335 337 338 339 338 333 334 336 337 336 336 339 341 342 341 338 338 337 337 336 335 335 335 336 337 338 340 341 342 343 344 345 347 348 348 350 352 353 354 356 356 355 355 354 355 356 356 356 356 356 357 358 356 361 356 356 353 352 350 352 354 355 356 351 352 354 353 353 352 351 352 351 351 352 353 354 356 354 353 354 354 354 353 352 349 350 351 353 356
317 318 319 326 331 335 333 334 334 336 338 337 333 333 338 339 338 335 337 342 342 344 338 338 337 335 335 335 335 334 334 335 337 337 339 341 342 341 342 344 346 346 349 351 351 353 355 356 355 355 355 354 354 356 355 355 355 354 356 356 355 362 356 356 353 351 350 351 353 354 355 352 352 353 352 351 351 350 350 351 352 351 352 354 355 352 355 353 352 351 352 352 352 350 350 352 356
316 314 312 315 330 333 333 331 333 335 337 336 333 332 333 336 336 328 336 339 341 343 337 337 335 334 335 335 336 335 334 334 336 337 340 340 341 340 341 343 345 346 349 349 351 352 355 355 355 356 355 356 354 355 355 355 355 354 355 355 356 359 356 356 352 350 350 351 353 353 354 354 353 353 352 351 350 350 350 351 351 352 352 354 357 355 357 354 353 354 354 352 350 349 350 353 356
312 312 311 310 313 333 332 332 332 334 334 337 334 330 333 334 335 330 334 339 339 338 337 335 335 334 334 335 335 336 335 335 336 337 337 339 339 340 341 342 343 345 347 348 351 353 355 355 355 356 355 355 355 355 357 355 354 353 355 354 355 358 357 354 350 349 353 350 352 352 352 353 357 351 351 351 350 350 351 351 351 351 353 357 357 355 356 354 354 354 356 354 352 352 352 352 354
312 310 305 307 310 327 332 330 331 336 332 336 335 330 327 329 327 333 335 338 337 336 335 334 333 333 333 334 335 335 335 336 336 336 338 340 342 342 341 344 344 344 347 349 351 353 354 355 354 355 355 355 353 354 356 355 354 354 354 354 356 358 354 351 349 349 349 350 351 352 352 353 357 351 351 353 357 351 352 353 353 355 355 355 357 358 356 352 352 352 353 356 353 352 352 351 355
313 310 305 304 304 313 329 332 333 333 334 334 332 314 320 327 331 333 336 336 336 334 333 335 333 333 333 333 334 335 336 336 336 335 338 340 342 342 342 344 345 345 345 348 350 352 354 355 356 356 355 354 352 354 355 354 353 354 354 353 356 354 350 350 350 349 351 350 351 351 352 354 354 352 353 354 354 353 354 353 353 353 354 357 357 355 352 352 351 351 352 349 356 352 349 350 352
305 308 306 299 300 299 329 330 330 327 334 332 330 313 318 326 329 334 336 336 334 331 332 333 333 333 333 333 334 335 336 337 337 337 338 340 341 342 343 344 345 346 345 346 349 352 353 353 355 354 356 353 354 353 355 352 353 353 352 351 354 351 350 349 349 349 350 350 350 350 352 354 353 353 354 354 354 353 354 353 352 353 355 358 357 354 351 350 349 350 352 348 348 350 351 352 351
306 300 294 297 298 298 325 330 329 323 330 333 325 313 317 324 328 333 335 336 333 331 332 332 332 333 333 333 334 335 336 337 338 338 337 339 340 341 343 343 346 345 345 345 349 351 351 351 353 352 354 352 352 352 353 352 353 353 351 357 353 353 351 350 349 350 351 350 351 350 351 354 352 352 355 355 353 353 354 354 354 357 359 359 356 353 353 351 350 350 352 349 346 348 349 347 350
302 300 296 297 299 299 305 327 328 329 329 331 325 312 320 322 330 333 335 334 333 331 331 332 332 333 332 333 334 335 335 337 338 338 338 337 338 341 342 344 345 346 345 345 348 348 348 350 352 350 352 351 351 352 352 351 352 351 351 355 354 354 352 351 351 352 351 351 350 349 351 354 351 352 355 357 355 356 355 355 357 359 361 359 356 354 353 354 353 353 350 351 347 344 348 349 345
296 299 296 298 298 299 298 313 328 329 329 323 328 317 319 323 329 332 335 334 331 330 330 331 332 332 332 333 334 335 335 336 336 337 337 337 337 340 342 347 345 346 345 345 347 347 347 349 350 350 352 352 351 351 351 350 351 352 352 352 357 353 354 354 353 353 352 352 351 350 352 355 353 353 356 357 358 359 357 356 358 358 362 360 357 354 352 355 352 352 348 350 348 345 344 346 345
295 297 297 296 299 300 301 301 318 327 328 324 324 319 320 324 328 331 333 334 331 330 330 331 331 331 332 332 333 334 334 335 336 337 338 337 335 339 340 343 344 345 345 344 346 346 348 349 350 351 350 351 351 351 351 350 351 352 351 351 353 351 354 355 355 354 354 354 353 353 354 356 356 355 357 359 359 361 357 358 358 360 362 359 357 354 353 354 353 350 349 347 351 348 345 346 346
300 301 298 298 297 297 298 304 324 327 322 321 321 316 320 324 326 330 332 333 330 330 331 331 332 332 332 332 333 333 334 335 337 338 338 338 336 337 339 342 342 344 345 344 345 345 347 348 349 350 349 350 350 350 350 348 349 349 346 347 348 349 351 354 354 356 357 356 357 357 356 358 358 359 359 360 359 360 358 358 359 361 360 359 357 353 351 352 353 350 349 347 348 352 356 350 348
305 304 302 299 298 299 302 303 323 328 322 320 320 319 321 323 325 329 331 332 330 329 329 330 331 331 331 331 332 333 333 335 337 338 339 338 336 337 339 341 341 343 343 342 342 345 346 347 348 347 348 350 349 348 348 346 345 344 344 344 344 347 347 350 354 356 357 357 360 359 360 362 362 361 361 360 359 364 359 358 359 359 359 359 358 355 353 351 351 352 352 353 350 348 349 351 350
304 302 300 299 299 297 302 302 320 327 320 318 320 319 320 323 325 329 330 330 328 328 329 330 330 331 331 331 331 332 333 336 336 337 338 338 337 337 339 340 342 339 340 340 341 344 345 347 347 347 347 349 348 348 348 346 346 345 344 343 341 343 346 348 350 355 356 359 360 361 362 363 363 360 361 360 361 359 357 358 359 358 358 357 358 360 356 361 357 355 356 351 353 353 345 345 345
304 301 299 297 298 300 303 303 308 325 321 316 319 317 319 322 325 329 329 329 330 331 330 331 331 330 331 331 331 332 333 333 334 335 337 337 337 337 338 339 339 340 339 339 341 344 344 346 347 347 347 348 347 347 347 344 345 345 344 342 341 340 347 349 351 355 358 357 359 360 362 363 362 360 361 362 361 359 357 358 358 356 356 359 355 354 355 352 351 352 352 348 347 348 353 350 342
302 300 295 295 299 297 294 301 302 308 319 317 318 317 318 323 325 327 330 330 331 332 332 332 333 331 331 331 332 332 332 332 332 333 334 336 337 336 337 338 338 339 339 338 340 342 344 346 345 345 346 347 347 347 349 344 346 345 343 341 339 341 342 347 349 353 356 356 356 359 360 362 362 362 361 361 361 359 357 358 358 356 356 359 354 354 352 350 351 350 353 356 349 341 343 339 350
300 300 299 297 298 298 298 298 301 303 306 322 318 314 316 318 320 323 328 331 331 332 332 332 333 334 335 334 334 334 333 333 333 333 334 335 336 336 336 337 338 338 338 337 339 341 344 344 345 345 346 346 347 349 348 345 350 345 343 342 343 343 342 343 346 349 353 355 355 355 357 360 362 362 362 361 361 358 356 357 358 357 355 358 357 354 355 355 352 351 353 351 347 343 345 341 343
297 299 300 300 301 300 301 301 299 295 295 318 316 304 306 315 319 321 325 327 327 331 330 330 331 333 334 333 333 335 335 335 334 334 334 335 336 336 336 337 337 337 337 338 339 341 343 344 344 345 347 346 347 348 348 347 348 343 340 337 335 335 335 338 342 346 350 352 352 355 357 359 361 361 361 362 362 360 356 357 358 357 356 356 358 356 356 355 353 352 354 352 350 350 348 347 336
295 295 300 301 301 301 300 299 299 292 295 309 318 307 302 311 315 319 323 324 324 327 329 330 331 332 334 333 334 334 334 335 336 336 335 336 336 336 335 336 336 337 338 339 339 340 343 344 344 345 346 346 348 349 349 348 345 344 341 339 335 335 335 335 343 349 351 352 352 351 354 356 359 360 361 361 362 362 358 358 358 358 359 356 362 356 355 357 357 355 355 353 354 355 351 346 335
294 299 302 301 299 299 299 299 297 292 303 314 322 310 303 304 312 319 322 321 322 323 327 329 331 332 333 334 334 335 335 335 335 335 336 336 336 336 335 336 336 338 338 339 338 340 342 343 344 344 347 347 348 350 349 347 344 345 341 340 339 335 336 335 339 347 351 352 349 350 352 354 356 358 359 359 360 362 360 358 358 359 360 359 361 357 356 358 359 357 357 357 354 357 352 346 343
296 302 304 302 302 301 300 298 295 295 295 290 308 318 305 304 313 319 321 317 319 320 324 328 330 332 333 334 334 335 336 336 336 336 335 336 336 336 337 336 337 339 339 339 337 339 342 344 344 345 347 347 347 350 350 347 346 345 342 341 339 338 337 337 340 345 349 351 347 347 349 352 353 354 357 358 358 360 363 359 359 359 360 359 364 359 358 359 359 356 353 354 355 359 354 350 346
303 305 305 304 304 302 301 297 295 297 292 289 299 308 296 295 309 313 319 318 317 319 323 328 330 331 332 333 334 335 336 336 337 338 337 337 338 337 338 338 337 339 339 341 338 339 341 343 344 344 345 348 347 350 350 348 345 347 342 340 339 338 339 338 339 340 345 347 346 346 346 348 350 350 351 356 356 359 361 361 360 360 360 360 362 359 359 359 358 356 353 354 355 359 359 357 349
304 304 302 301 300 299 300 296 296 292 289 287 294 298 296 287 301 312 313 316 319 321 323 327 331 331 333 334 334 334 335 336 337 338 338 337 339 339 338 337 337 338 339 340 338 338 340 343 343 343 345 348 348 348 350 348 346 345 343 341 340 338 338 337 338 339 341 343 344 345 345 345 347 348 347 354 356 358 359 362 361 361 360 361 362 359 359 358 358 357 354 355 358 356 353 352 356
304 300 298 296 295 295 295 292 292 289 283 289 294 295 296 287 290 312 319 323 323 322 322 324 329 331 332 333 334 335 335 336 337 337 338 337 337 338 338 337 337 338 338 339 338 339 339 343 343 342 343 346 348 348 349 348 347 344 344 341 340 340 340 338 338 340 339 340 343 344 345 344 345 346 344 350 354 357 359 360 361 360 360 359 359 359 359 357 357 358 355 357 358 356 351 351 349
301 299 297 292 285 289 284 287 288 285 284 291 295 296 296 290 295 314 319 321 323 324 325 325 328 331 332 333 334 335 335 336 337 337 338 337 336 337 337 337 337 337 337 338 338 339 338 342 343 342 342 344 348 348 348 348 347 345 344 341 340 342 343 340 339 340 341 340 341 344 344 343 344 344 343 347 353 356 358 358 358 358 358 359 359 357 358 357 355 357 357 358 357 355 352 351 350
298 297 292 290 286 286 282 283 285 284 290 294 295 297 292 292 296 307 318 322 324 325 326 327 328 331 332 333 334 335 335 336 337 338 338 338 336 337 337 337 337 337 338 338 339 340 339 341 343 342 343 344 347 348 347 347 347 347 345 342 340 343 342 343 339 339 342 342 342 344 346 345 344 344 344 345 352 356 358 358 359 358 358 358 359 357 355 356 356 357 357 357 357 356 354 353 353
296 296 296 292 289 287 284 284 283 283 286 290 297 293 288 290 294 303 319 323 324 325 327 327 328 331 333 334 334 335 335 336 337 337 338 339 337 337 338 338 337 338 338 338 339 340 341 339 343 343 343 344 345 348 347 346 346 347 346 344 341 342 342 345 341 341 341 343 344 344 347 347 346 345 344 345 353 355 357 358 358 357 358 357 359 357 356 359 358 357 358 356 358 356 355 356 355
297 299 299 294 292 293 289 287 287 288 288 289 291 291 292 293 300 304 315 322 323 325 325 326 326 330 332 332 333 333 334 335 337 338 338 339 338 338 338 338 338 338 339 339 339 340 341 340 341 343 343 345 346 348 347 346 345 346 346 344 342 342 344 345 345 343 341 343 344 346 347 348 347 346 346 346 350 355 356 358 358 357 358 358 358 358 355 358 358 357 356 355 355 360 356 356 356
295 297 294 295 298 298 293 297 297 296 292 287 293 295 296 297 301 303 302 310 319 322 323 324 325 330 331 331 332 333 334 335 336 337 338 339 339 338 339 338 338 339 339 339 339 340 342 342 341 342 344 346 347 349 348 347 346 345 345 345 344 342 342 342 344 344 343 342 343 345 348 349 348 347 347 349 348 353 355 357 357 357 358 359 357 358 358 357 357 357 357 356 354 357 356 355 356
296 292 295 301 302 299 292 286 288 288 284 286 294 291 291 291 290 300 300 304 315 320 321 323 324 329 329 330 331 333 333 334 336 338 339 340 340 339 339 340 339 339 340 340 341 342 343 344 343 342 344 344 347 349 349 348 347 346 346 346 345 343 343 342 344 345 345 344 342 343 346 349 348 349 349 351 350 350 353 361 356 357 357 359 357 358 358 358 358 356 356 356 356 356 356 355 356
296 293 301 295 288 289 291 291 285 285 285 285 290 293 294 293 294 298 300 300 302 315 321 321 322 327 329 330 331 333 334 334 335 337 338 338 339 339 339 340 340 340 341 341 342 343 343 345 345 344 344 346 347 350 351 351 350 348 347 347 346 344 344 344 343 345 347 345 343 342 342 348 350 349 350 350 351 350 351 356 356 356 356 358 358 358 358 358 358 356 357 356 357 355 355 354 355
300 300 297 299 295 294 290 291 290 289 284 288 285 291 289 297 295 299 301 302 302 305 317 320 322 326 329 330 331 332 333 334 335 337 338 339 339 340 340 340 340 340 341 342 343 344 344 345 347 346 346 347 348 349 351 350 350 350 349 349 348 346 346 345 344 343 345 346 345 344 343 343 348 351 349 350 351 351 351 352 356 356 356 357 358 358 358 358 358 356 357 356 357 356 354 354 355
292 293 292 296 296 297 295 295 294 290 286 284 285 285 290 298 304 303 304 307 306 305 306 320 323 326 329 331 332 332 333 334 335 336 338 339 339 340 341 341 342 342 343 344 344 344 345 346 347 347 346 346 347 349 350 351 351 350 350 348 348 348 346 346 345 344 344 346 347 347 345 344 347 350 351 348 349 349 352 353 354 356 355 356 357 358 359 358 358 356 356 357 356 356 355 354 355
292 291 290 294 293 291 288 287 296 294 290 284 287 286 293 303 312 312 314 317 318 318 311 315 323 326 329 331 332 333 333 334 335 336 337 339 339 341 342 342 342 343 343 343 344 345 346 346 348 348 348 347 347 348 350 351 352 351 350 349 349 349 348 347 346 345 344 344 347 349 348 347 346 348 352 350 348 348 349 353 354 354 355 356 356 357 359 358 358 357 356 358 357 356 355 354 354
Wind_Speed
9 6 4 4 2 2 3 1 1 0 1 2 3 2 2 1 3 3 6 7 4 1 3 3 4 5 3 2 5 7 9 7 0 6 5 2 8 11 7 10 10 8 7 5 4 5 6 6 12 14 15 15 15 15 15 14 14 14 14 14 14 13 12 12 12 12 12 12 13 13 13 14 14 14 13 13 12 12 12 13 13 13 13 13 13 14 14 14 14 14 14 14 14 14 14 14 15
6 5 4 3 2 2 1 1 1 1 2 2 4 1 0 3 4 3 8 5 2 3 5 2 2 1 2 2 9 9 7 6 3 5 5 7 10 7 9 11 11 10 7 6 6 6 5 6 11 13 15 16 15 15 14 14 13 13 14 13 13 12 12 12 12 12 12 13 13 13 14 14 13 13 13 12 12 12 12 13 13 13 13 13 13 13 13 13 13 13 13 14 14 14 14 14 14
6 5 3 3 1 2 0 1 0 0 1 2 2 2 1 2 4 1 4 4 2 6 6 3 5 3 3 4 6 2 1 5 11 8 8 10 13 7 10 11 10 10 9 6 6 5 5 7 11 12 15 16 15 14 14 14 14 14 13 13 12 12 12 12 12 12 12 13 12 13 13 13 13 12 12 12 11 12 13 12 13 13 13 13 13 13 13 13 13 13 13 13 13 14 14 14 13
6 3 5 3 3 1 1 1 1 1 1 2 2 3 2 3 6 2 4 5 1 7 4 4 3 3 5 5 6 13 7 4 2 11 9 9 7 11 11 11 10 9 8 6 6 5 4 9 10 12 14 15 15 14 14 14 14 14 13 12 12 12 12 12 12 12 12 13 12 13 13 12 12 12 12 11 11 12 12 12 12 12 12 12 12 12 12 13 13 13 13 13 13 13 13 13 13
4 3 1 2 0 0 0 1 1 1 1 1 1 2 1 2 5 6 5 4 3 4 4 4 4 5 2 6 3 2 5 6 6 3 8 6 11 12 12 12 10 9 8 7 6 6 6 11 11 13 15 15 15 15 15 14 14 13 13 13 13 13 12 12 12 12 12 12 13 13 12 12 12 12 12 12 12 12 12 12 12 12 12 12 11 11 12 12 12 12 13 13 12 12 12 13 12
1 1 1 2 1 1 1 1 1 1 3 3 2 1 3 1 4 5 9 5 3 4 2 5 5 7 2 3 3 3 13 9 7 6 10 10 15 15 14 11 10 9 8 7 6 5 6 11 13 14 14 16 16 15 14 14 14 13 13 13 13 13 12 13 11 12 14 13 13 14 11 12 12 12 12 12 12 12 12 12 12 12 12 12 11 11 11 11 11 12 12 12 11 11 12 12 12
3 2 2 0 1 1 1 0 2 2 4 6 3 3 5 4 5 6 8 8 3 2 1 2 11 10 7 6 12 6 5 9 8 9 8 15 16 15 14 11 10 10 9 7 6 6 8 13 15 15 15 15 16 15 14 14 14 14 13 13 12 13 13 13 12 11 13 13 12 12 12 12 12 12 11 12 12 12 12 12 12 12 11 11 11 11 11 11 11 11 12 12 11 11 11 12 12
3 1 0 1 0 1 1 1 3 3 4 1 1 5 3 4 6 5 5 5 6 5 3 4 2 10 9 3 6 6 10 2 10 14 17 15 15 15 14 11 11 10 9 8 6 6 12 15 15 15 15 15 15 15 15 15 14 14 15 14 13 12 12 14 14 13 12 12 12 12 12 12 11 11 11 12 12 12 12 12 12 12 11 11 12 11 11 11 11 11 11 11 11 11 11 12 12
2 4 1 1 1 1 2 2 1 1 2 1 1 1 5 3 1 5 5 2 5 3 13 11 12 13 4 12 8 7 8 14 13 17 17 16 16 15 11 11 12 10 10 8 7 6 7 13 14 15 15 15 15 15 15 15 15 15 15 14 13 13 13 13 13 13 13 12 12 12 12 12 11 11 12 11 11 11 12 12 12 12 11 11 12 12 12 12 11 11 11 11 11 11 11 13 12
1 0 1 1 1 2 2 0 2 1 1 2 3 3 3 3 3 3 5 5 4 6 11 12 4 15 11 12 11 7 9 15 18 16 15 16 16 14 13 12 12 13 11 8 7 6 6 14 15 15 15 15 15 15 15 15 14 15 15 15 14 14 13 13 12 13 12 12 12 12 12 12 12 11 11 11 11 11 12 12 12 12 11 11 11 12 12 12 11 11 11 11 11 11 11 12 12
1 0 0 1 0 1 1 3 2 2 2 4 4 2 4 3 4 4 5 3 5 8 11 13 14 16 13 7 5 7 15 17 18 18 16 16 15 14 12 12 11 11 11 10 8 6 7 8 16 15 15 15 15 15 15 15 15 14 15 15 14 14 13 12 12 12 12 11 12 12 12 12 11 12 11 11 11 11 11 12 11 11 11 10 11 11 11 11 11 11 10 11 10 11 11 10 10
2 1 1 1 0 1 2 2 1 2 3 1 4 2 1 5 5 5 3 2 9 12 14 9 6 15 11 9 6 12 16 15 14 16 16 15 12 14 13 10 11 10 11 10 9 7 8 7 7 13 16 15 15 15 14 15 15 15 15 14 14 13 13 12 12 12 12 11 11 12 12 12 11 11 11 11 11 11 11 11 10 10 10 10 10 11 11 11 11 11 10 10 10 10 9 10 10
2 2 2 1 1 1 2 2 1 4 1 3 3 2 3 4 3 5 5 5 7 13 7 5 19 10 9 8 8 14 16 14 15 15 16 13 13 12 11 11 11 11 10 9 10 9 8 6 7 7 11 16 15 15 14 15 14 14 14 14 13 13 12 12 12 12 12 11 11 12 11 12 12 12 11 11 11 11 11 10 10 10 9 9 10 10 11 11 11 12 10 10 10 9 9 9 10
3 4 3 0 1 2 2 0 2 4 3 2 3 4 3 2 5 2 2 4 6 6 9 16 12 13 14 12 10 12 13 16 17 16 14 13 12 12 13 11 12 11 10 9 8 8 8 6 6 6 7 7 7 11 14 15 14 14 14 14 13 13 13 13 12 12 12 12 12 12 12 12 12 12 12 12 11 10 10 10 10 9 9 9 9 10 10 11 11 10 10 9 9 9 9 9 9
4 1 1 2 1 1 1 2 2 5 2 5 3 4 3 6 1 2 5 4 2 7 13 7 13 12 10 18 10 12 16 18 17 17 15 14 15 13 13 11 11 10 9 9 8 8 8 7 7 6 6 6 6 5 5 10 14 14 14 14 14 14 13 13 13 13 12 12 12 12 12 12 12 12 12 12 11 11 9 9 9 9 9 9 9 9 10 10 10 10 10 9 9 9 9 8 8
3 1 1 1 3 1 1 2 2 4 2 3 3 4 8 8 1 3 3 5 3 5 13 8 9 1 15 7 21 19 20 18 18 17 16 17 15 12 12 11 9 9 8 8 8 7 7 7 6 5 5 5 4 4 5 5 11 14 14 14 14 14 14 13 13 13 14 13 13 12 12 9 10 8 13 9 11 11 9 6 8 8 9 9 9 10 10 10 10 10 10 9 9 9 9 8 7
3 1 2 1 3 1 1 1 2 2 5 3 2 4 6 5 1 4 3 7 1 4 4 10 4 11 16 11 18 20 18 17 17 18 17 13 11 10 9 8 8 7 7 8 6 7 8 8 7 5 5 6 5 4 4 5 8 14 12 14 14 14 14 14 14 14 13 12 10 10 8 4 3 4 6 5 10 6 9 9 8 9 9 9 9 10 10 10 10 9 9 9 10 10 8 7 6
3 4 2 3 4 1 3 3 5 4 5 6 5 2 7 8 5 4 5 6 3 2 5 6 11 10 11 16 18 19 18 19 18 19 15 13 11 10 9 8 9 9 8 7 8 7 7 7 7 6 6 6 5 4 4 4 5 8 5 6 6 9 11 11 8 4 7 4 9 5 3 2 2 3 4 7 3 6 7 10 9 9 9 9 9 9 9 9 8 8 8 8 11 8 7 3 2
6 2 2 6 3 4 2 2 6 6 4 5 5 3 3 5 5 1 5 6 6 4 1 14 9 15 16 18 20 18 18 19 19 17 17 16 13 14 11 9 9 9 8 7 7 8 7 7 7 7 6 6 6 4 4 4 4 3 4 4 5 8 7 5 3 5 4 4 4 4 3 2 2 3 3 5 4 9 7 10 10 9 9 10 9 9 8 8 7 6 6 7 7 7 3 2 2
9 3 4 6 5 2 4 6 6 4 11 9 7 4 4 6 5 2 4 7 7 9 8 13 16 18 20 19 19 19 18 19 18 18 18 17 15 14 13 12 11 10 10 9 9 7 7 7 8 7 7 7 6 4 4 4 4 3 4 3 4 4 4 4 3 5 5 4 4 3 3 2 3 3 7 11 9 4 6 9 10 10 10 9 9 5 7 7 6 5 5 6 5 3 2 1 1
5 6 5 5 6 3 2 4 8 7 9 10 7 5 5 5 5 4 6 9 4 4 4 15 21 22 22 22 21 19 19 19 17 17 18 16 15 12 13 12 11 10 9 8 7 8 8 8 8 7 7 7 5 5 5 4 4 4 4 4 4 4 4 3 4 4 4 4 3 2 3 3 3 2 2 2 2 3 2 3 4 4 4 3 5 3 3 3 3 2 3 3 3 3 3 2 2
2 10 11 4 4 2 6 5 9 8 7 9 8 7 5 7 3 5 6 6 5 5 10 13 19 22 24 23 21 19 20 18 18 18 18 17 17 15 12 10 10 9 8 9 9 9 9 9 8 7 8 7 6 6 6 6 6 5 5 5 4 4 4 4 4 4 4 3 3 3 3 4 2 2 3 3 2 3 3 3 4 3 3 2 2 3 3 3 2 1 2 2 2 2 2 2 2
7 6 6 8 7 5 5 8 7 13 9 9 9 6 6 5 4 5 5 7 3 6 10 18 20 20 21 20 21 20 20 19 19 19 18 17 16 15 14 12 11 11 9 9 8 8 9 9 8 9 8 7 7 6 5 6 6 5 5 4 4 4 4 4 4 3 3 2 2 3 5 4 3 3 4 4 3 2 3 3 4 3 2 2 1 2 2 1 2 2 2 1 0 2 2 1 2
8 7 4 11 11 8 10 12 10 9 14 10 7 9 6 7 5 5 7 6 6 9 15 19 18 17 19 19 18 20 20 20 19 17 17 17 17 17 15 13 11 9 9 10 9 9 9 10 9 9 8 8 7 7 6 6 5 6 5 5 5 5 4 4 4 4 3 3 1 2 3 4 4 4 3 4 3 2 2 2 3 3 2 2 1 3 2 2 2 1 2 1 1 2 2 2 2
8 10 10 7 11 9 12 11 10 10 11 10 10 8 7 7 4 5 7 7 5 10 11 20 18 18 17 18 17 17 18 17 17 17 13 12 13 14 12 10 11 10 11 11 10 9 10 9 10 10 9 8 8 8 7 6 6 6 5 5 5 5 4 4 4 4 4 2 1 1 2 4 3 4 4 3 3 2 2 1 2 3 2 1 2 1 3 3 2 1 1 2 1 2 1 2 2
7 11 9 6 7 13 12 13 12 12 8 11 12 7 4 7 3 2 6 6 7 2 15 20 18 19 17 17 16 16 18 18 18 17 16 13 14 15 13 11 12 12 11 11 11 10 9 10 11 11 10 9 8 8 6 6 6 6 7 6 6 5 5 4 5 4 3 4 3 2 2 3 4 4 4 3 4 2 2 1 1 1 1 0 1 2 1 3 3 2 2 2 2 1 1 1 1
7 7 4 3 7 12 13 16 14 12 10 13 12 9 7 9 6 3 4 6 7 6 16 18 19 18 18 15 16 14 18 18 19 15 15 13 14 14 13 11 13 12 11 11 11 10 9 11 11 10 9 8 7 8 7 7 6 7 7 6 6 5 5 5 4 4 4 4 4 4 3 2 2 3 4 3 2 3 2 2 1 0 0 1 1 1 2 2 2 3 2 2 2 1 1 0 0
6 7 6 7 4 14 14 12 15 11 9 12 14 9 7 7 1 4 6 8 8 10 14 17 17 17 17 16 16 12 14 15 15 15 18 17 13 13 13 12 13 12 13 12 10 10 11 12 11 10 10 9 9 8 8 7 6 6 6 6 6 5 5 5 5 5 5 4 4 4 4 3 2 3 3 3 3 3 3 2 1 1 1 0 1 2 2 2 1 2 2 2 2 2 0 0 0
4 5 4 6 1 9 15 14 14 12 11 13 12 13 4 2 3 5 7 10 9 9 11 14 16 16 16 13 15 12 13 13 13 14 16 14 14 13 15 13 13 13 10 12 11 11 13 12 11 11 10 9 9 9 8 7 6 6 6 6 6 5 5 5 5 5 5 4 4 4 4 3 3 4 3 4 3 4 3 3 2 2 2 2 1 2 2 2 2 2 2 2 1 1 0 1 1
7 4 2 4 2 5 15 12 14 11 9 18 15 5 7 10 10 8 10 13 12 12 15 13 13 15 15 11 14 13 13 13 12 13 13 13 14 14 15 14 13 12 10 9 11 12 11 9 9 9 9 10 9 8 7 6 6 6 6 6 5 5 5 5 5 4 4 4 4 4 4 4 3 3 4 3 3 3 3 2 2 2 2 1 1 2 2 1 2 2 2 2 1 1 1 2 0
1 6 2 3 1 2 12 11 13 9 10 20 12 6 8 11 13 13 14 15 18 17 18 20 15 15 15 11 12 13 15 14 12 11 15 15 14 13 15 14 14 12 9 11 13 13 12 10 9 9 10 10 9 9 9 7 6 6 6 6 5 6 6 6 5 4 4 4 4 4 4 4 4 3 3 4 3 2 3 3 3 3 3 2 2 1 2 1 2 2 2 2 0 0 2 2 1
2 3 4 3 3 2 11 11 16 10 5 15 5 2 11 13 15 14 16 14 22 18 19 18 16 15 16 12 12 14 14 14 14 12 14 17 15 14 16 16 15 14 13 12 13 12 12 10 10 10 11 10 9 10 8 7 7 6 5 5 5 6 6 6 6 5 5 5 5 4 4 4 4 4 4 3 4 3 3 4 4 3 3 3 3 2 2 3 2 2 1 2 2 1 1 2 0
1 3 4 3 1 4 5 13 14 15 15 11 12 3 5 6 12 15 18 20 19 18 18 18 19 18 18 13 13 13 15 14 15 13 13 16 14 15 15 16 16 16 14 13 13 13 11 11 11 12 12 10 9 10 9 7 6 6 6 5 7 6 7 6 5 5 5 5 4 5 5 5 4 4 4 4 4 4 4 4 4 4 4 3 3 3 3 2 2 2 1 1 1 2 2 1 1
4 0 3 3 4 2 3 7 13 11 17 10 14 2 8 6 13 15 19 20 18 18 18 18 19 16 17 15 14 14 15 15 16 15 16 14 14 16 15 16 17 16 15 14 14 14 13 12 10 11 10 9 8 10 9 8 7 7 6 5 6 7 8 7 6 6 5 5 5 6 6 5 5 5 4 4 4 4 4 4 3 4 4 4 3 2 3 2 1 2 2 1 1 2 3 2 2
2 1 3 5 2 5 8 5 9 13 15 17 14 6 7 8 14 17 16 16 17 16 18 19 19 17 17 16 16 15 14 16 17 15 16 14 16 16 15 16 15 16 14 15 14 12 11 11 9 10 9 8 9 9 8 7 7 6 5 5 6 6 5 6 7 6 6 5 6 6 6 5 6 5 5 5 4 4 4 4 3 3 4 4 4 3 2 2 1 1 2 1 1 2 2 2 3
4 4 3 2 4 5 5 2 9 17 11 12 16 10 9 13 15 16 16 16 15 15 14 15 16 16 16 16 17 16 14 16 14 15 16 14 14 16 15 15 15 15 15 14 14 12 12 11 9 9 7 8 7 8 7 6 6 6 6 4 4 6 6 6 6 7 6 6 6 6 6 6 6 6 6 5 4 4 4 4 4 3 4 4 4 4 3 4 4 2 1 1 2 2 3 5 2
10 7 4 5 6 9 7 2 10 15 13 16 17 9 12 15 17 18 18 16 15 14 14 13 15 15 15 16 17 16 16 17 16 16 16 15 16 16 15 15 14 15 16 15 14 13 13 13 12 11 7 8 8 8 8 8 7 6 4 6 6 6 7 7 7 6 7 7 7 7 7 6 6 6 6 5 5 4 4 4 3 3 3 3 4 4 4 3 2 3 2 2 1 2 3 2 3
9 9 6 8 7 11 9 4 10 14 14 9 9 12 13 16 14 18 16 17 18 18 17 15 16 15 15 17 18 16 14 12 15 15 16 15 15 16 16 15 15 17 15 16 15 15 14 14 14 12 7 9 9 9 8 8 8 8 8 8 5 6 6 6 6 6 7 6 7 7 7 6 6 6 6 5 4 5 4 4 4 4 3 4 3 3 2 2 2 2 2 1 2 2 1 2 3
9 8 7 6 10 7 12 7 9 14 11 10 14 14 14 15 15 17 20 19 16 17 19 18 18 16 14 16 17 16 13 15 16 17 18 16 17 18 16 15 16 18 17 17 16 16 15 14 13 12 9 10 9 9 8 8 6 6 7 6 7 5 3 6 7 7 6 7 7 7 7 6 7 6 6 5 5 4 5 5 5 4 3 3 2 1 2 2 3 2 2 1 1 0 1 1 3
8 7 6 9 8 3 7 1 3 2 8 7 16 13 8 9 11 17 18 17 14 15 17 16 16 18 17 19 18 17 16 16 17 18 19 17 17 17 17 16 16 16 16 15 16 17 14 13 13 12 11 10 9 9 9 6 7 6 6 6 5 6 4 5 5 4 5 5 6 6 5 6 7 6 6 6 4 5 5 5 4 4 4 3 3 3 2 3 2 2 1 1 1 0 2 0 0
6 9 9 9 9 9 7 7 5 4 9 16 9 5 1 5 9 10 11 11 11 12 13 12 12 14 15 14 16 17 18 17 17 16 18 18 18 18 18 17 16 16 16 16 16 16 12 15 14 14 12 11 10 10 10 7 6 5 4 3 2 1 4 5 4 4 5 6 5 5 7 6 6 6 6 6 5 5 5 4 5 4 4 4 3 3 3 4 3 2 1 2 1 1 1 1 1
6 8 11 12 12 11 10 6 5 5 4 10 18 6 6 9 13 16 12 10 12 13 15 15 14 12 12 14 16 15 16 17 17 18 19 19 18 16 17 17 18 17 17 17 17 17 15 14 14 14 12 11 11 11 11 8 8 10 8 7 6 5 4 7 9 9 7 7 8 7 5 6 6 5 6 6 5 5 5 5 4 4 4 4 4 4 3 2 2 3 3 2 1 1 0 1 1
6 6 8 12 12 12 10 9 1 1 2 2 4 12 8 4 7 10 12 13 13 11 15 16 15 14 14 15 15 15 17 16 16 16 15 17 18 17 17 18 18 18 17 16 15 16 17 15 15 15 13 11 11 11 11 9 7 8 10 10 10 10 9 6 7 8 9 7 6 6 7 6 6 7 6 6 6 5 5 5 5 4 4 4 3 3 3 4 4 3 2 2 3 2 1 0 3
6 7 7 6 5 5 7 7 5 4 0 2 3 4 4 5 8 8 10 11 12 13 14 16 16 17 17 16 16 16 17 17 17 18 17 17 19 19 20 20 18 19 17 16 16 15 17 17 16 15 12 12 11 11 11 11 10 9 9 8 7 8 9 8 9 8 7 7 6 7 6 6 6 6 6 6 6 5 5 5 5 4 4 4 4 5 5 4 4 2 3 3 2 2 3 3 3
6 8 10 9 8 7 5 5 6 4 4 2 5 4 2 4 9 11 9 10 13 16 17 18 19 19 18 17 17 18 18 19 18 17 18 19 20 19 18 19 18 19 17 17 16 16 16 16 16 14 14 13 12 14 13 12 11 10 10 8 8 7 7 6 6 6 7 7 7 6 6 6 6 5 6 6 6 6 5 6 5 5 5 5 4 5 4 4 5 4 4 3 3 3 4 2 2
8 11 9 7 7 5 2 1 3 2 4 5 7 8 4 4 4 7 9 12 15 18 20 20 20 20 19 18 17 17 17 17 18 19 18 18 19 19 19 18 18 18 17 17 17 15 16 16 17 17 16 13 13 14 14 13 12 10 9 8 10 8 6 5 6 7 7 7 8 7 6 6 6 6 6 5 6 6 6 6 6 7 6 6 5 5 5 4 4 5 5 5 4 4 3 3 3
3 5 7 7 5 3 1 2 2 1 3 5 8 10 9 5 4 12 11 16 22 18 12 13 15 15 16 16 18 17 16 17 17 18 17 16 18 18 18 19 19 17 16 17 16 15 15 16 18 19 18 14 14 15 14 15 13 11 10 10 10 10 9 7 7 7 7 6 8 8 7 7 6 7 6 6 6 6 6 7 7 7 6 6 6 5 5 6 6 6 5 4 4 5 4 2 1
7 1 2 3 7 2 2 1 4 2 3 3 5 6 7 5 2 8 17 21 23 19 20 20 20 20 18 17 17 18 18 17 17 17 17 15 16 16 17 18 18 18 17 18 16 16 16 16 17 19 17 16 15 15 14 14 13 13 11 10 11 10 11 9 10 10 10 11 10 9 8 6 6 6 5 5 6 6 6 7 7 6 6 6 6 6 6 6 6 5 4 4 4 4 3 3 2
1 1 1 2 3 1 3 2 3 3 3 3 3 3 0 4 7 13 19 21 18 15 16 20 21 21 20 19 19 18 18 17 17 17 17 15 16 18 19 19 18 18 18 20 19 17 17 17 19 20 19 17 16 16 16 15 14 13 13 12 11 10 11 11 11 10 10 10 10 9 7 8 7 6 7 7 8 8 7 7 7 7 6 7 6 5 6 7 6 6 6 5 5 5 4 4 5
1 2 3 2 1 1 2 3 1 3 7 8 3 3 3 3 7 8 18 21 18 13 12 12 17 20 20 18 16 15 15 17 17 18 17 17 16 18 20 19 18 18 20 20 20 18 17 16 19 20 20 19 16 17 17 16 15 14 14 13 11 9 10 11 10 11 10 9 9 10 10 10 9 10 9 10 9 9 8 8 7 7 7 6 6 6 6 6 6 6 6 6 6 5 4 4 5
6 3 4 6 4 2 3 2 3 5 7 7 2 1 3 4 4 8 17 19 16 14 15 15 16 17 18 16 15 16 16 16 16 17 18 18 18 19 19 19 18 18 20 21 19 18 18 17 19 20 19 19 18 18 17 18 16 15 13 13 11 9 10 9 10 9 9 9 8 10 10 9 9 9 10 9 8 9 9 8 7 7 7 7 6 6 5 5 6 6 6 6 6 5 5 5 4
2 2 6 4 4 4 1 5 3 1 2 4 2 2 5 4 2 4 10 11 13 15 15 15 14 14 13 11 14 16 17 17 16 17 19 19 19 19 19 19 19 18 21 20 20 18 18 18 19 20 20 19 18 17 16 18 17 15 14 14 13 11 10 9 8 8 8 9 9 9 10 10 10 9 8 7 8 9 9 9 8 8 7 7 6 6 5 5 5 7 6 5 6 4 5 5 5
7 2 2 4 5 3 0 3 2 2 1 7 3 6 5 6 7 8 4 6 11 14 16 15 14 15 15 15 16 16 17 17 17 18 18 20 18 18 19 20 19 19 19 20 21 20 21 19 19 20 19 18 19 18 18 16 16 15 15 15 13 12 11 11 11 12 12 10 9 8 9 10 9 8 8 7 8 8 9 9 9 9 8 7 7 6 6 6 5 6 7 6 6 5 5 6 5
4 4 10 14 2 5 3 3 2 1 3 4 2 4 6 4 6 7 3 10 13 15 17 18 17 17 18 17 17 18 18 19 19 18 17 19 18 20 19 19 21 21 22 22 22 21 20 19 20 20 19 19 18 18 18 16 16 16 15 15 15 14 13 13 12 12 12 10 8 7 6 7 9 9 9 8 8 9 8 9 9 9 8 7 8 7 6 6 6 6 6 6 6 5 6 4 5
7 3 10 6 4 2 4 2 1 2 1 1 2 2 3 4 8 6 11 5 11 16 16 16 15 17 19 19 20 21 20 17 16 17 17 17 17 17 18 20 21 22 21 21 21 20 17 17 19 20 21 20 20 16 16 14 15 13 13 15 16 14 13 12 11 11 10 11 12 10 9 9 9 8 8 8 8 8 8 9 8 9 8 8 7 8 7 6 6 6 6 6 5 4 5 6 5
16 12 12 6 3 1 4 2 1 5 2 1 5 1 4 4 3 8 13 12 9 12 19 18 19 20 19 19 19 20 19 20 20 19 18 17 18 19 19 19 20 21 20 19 19 18 20 19 19 19 19 19 18 18 17 17 16 14 14 14 14 13 13 13 12 11 11 12 12 12 11 10 10 8 9 9 9 10 10 10 9 9 9 9 9 8 8 7 6 7 6 6 6 5 5 5 5
11 11 9 11 4 5 4 3 1 2 2 2 2 2 3 5 7 9 12 12 13 11 9 18 18 20 22 21 21 20 21 19 18 18 18 18 19 20 19 18 18 18 17 17 18 20 20 18 19 20 20 20 20 20 18 17 15 16 15 16 15 14 14 13 12 12 12 13 12 12 12 12 10 10 9 9 9 9 10 10 10 9 10 10 9 9 8 7 7 7 6 6 6 6 6 6 4
4 0 6 8 10 12 8 7 5 3 1 2 2 7 4 5 9 12 15 18 20 21 9 15 20 21 22 21 21 21 20 20 19 18 17 17 17 17 17 16 15 15 16 18 18 17 18 19 18 19 19 19 20 19 17 17 16 16 17 17 16 15 14 13 13 13 13 12 11 11 11 10 11 11 10 11 11 10 8 9 9 10 10 10 10 10 9 8 8 8 7 6 6 7 7 6 5
Wind_Direction
158 158 156 147 145 151 132 233 77 196 239 229 266 192 261 72 99 121 112 130 145 317 16 300 110 133 161 230 108 96 41 134 72 143 192 146 131 133 144 132 131 133 140 145 145 142 146 163 148 138 138 135 132 128 128 127 127 128 128 128 126 127 126 122 118 116 117 116 116 112 107 102 99 98 100 103 105 106 106 107 108 111 111 109 105 102 102 99 97 96 95 93 92 93 93 94 96
155 149 155 142 151 170 76 173 102 215 227 294 253 158 213 164 137 104 139 157 205 155 169 221 150 52 319 354 135 107 21 18 332 117 67 117 115 119 141 135 139 140 142 144 142 147 162 164 139 145 142 138 134 132 130 131 130 132 131 128 128 126 123 122 122 124 122 120 114 110 106 101 104 107 109 111 112 113 109 110 112 110 109 108 105 102 97 97 97 94 94 93 93 93 92 93 94
157 150 147 137 202 204 124 194 89 228 273 282 276 211 60 41 62 54 123 153 76 122 161 105 72 30 327 268 90 49 194 47 97 93 106 132 119 152 143 139 139 137 139 141 143 146 149 143 146 149 145 142 137 136 135 132 133 134 133 132 129 125 125 127 128 128 123 118 114 110 105 109 112 115 115 115 116 114 110 112 112 111 109 107 105 101 100 97 96 93 94 92 89 89 90 91 91
152 173 146 158 109 220 112 100 193 239 250 252 285 14 78 122 125 205 129 48 88 137 133 121 117 34 341 94 105 87 95 103 71 131 131 155 145 144 143 140 137 134 136 141 141 136 131 146 149 149 147 143 141 138 137 136 137 137 136 133 129 128 129 130 128 126 124 120 117 113 116 120 119 117 117 118 116 112 109 108 109 113 112 109 104 103 102 98 96 96 94 92 92 92 94 92 89
159 163 210 144 47 47 185 205 285 201 259 300 290 290 46 115 112 133 101 110 14 119 104 79 44 30 201 120 168 150 152 96 113 64 121 116 128 139 141 138 135 138 139 139 136 137 145 148 152 148 146 142 141 140 140 139 139 139 137 133 132 130 131 129 129 126 124 127 124 124 129 125 121 120 119 118 115 114 111 111 111 110 111 109 105 102 101 101 99 96 91 90 92 94 93 92 92
67 68 216 159 60 137 117 264 261 245 244 307 246 261 110 105 69 113 111 113 45 37 342 180 190 176 138 16 36 92 135 141 145 102 126 139 139 141 139 137 138 137 139 134 137 138 149 154 151 146 146 143 141 142 143 141 140 140 138 135 134 131 133 134 132 134 138 133 128 127 129 129 123 122 120 117 115 116 113 113 113 111 111 111 111 109 106 102 100 98 95 94 95 97 96 94 92
163 128 128 246 95 129 290 295 278 257 266 229 216 165 152 159 129 152 115 112 72 118 71 272 119 106 72 106 77 90 54 110 130 136 132 138 138 139 139 140 139 137 135 138 136 142 153 153 148 148 146 143 143 143 143 143 141 139 134 130 132 134 139 130 136 146 134 131 131 130 134 129 125 122 121 118 118 118 118 116 112 110 110 111 114 114 109 106 106 102 100 96 95 98 98 94 91
288 338 203 116 211 92 198 240 238 201 263 273 31 151 147 144 152 132 127 141 149 135 232 177 188 94 91 74 99 107 119 73 114 121 127 136 138 138 141 141 134 133 135 136 139 145 153 151 150 148 145 144 144 144 145 144 142 139 137 137 137 138 139 141 146 137 132 135 134 134 134 132 128 126 122 121 122 120 117 114 113 113 112 112 113 113 113 112 108 103 98 98 98 96 98 94 94
243 86 3 110 80 208 249 223 252 205 260 273 156 154 123 113 153 125 123 91 96 176 173 177 149 99 113 95 87 110 89 110 113 124 132 137 139 142 141 137 136 134 136 139 141 149 150 155 150 147 148 147 147 146 146 145 145 142 140 140 142 142 143 145 135 136 136 139 135 136 135 134 132 130 126 125 123 123 119 115 114 115 113 113 113 112 112 110 108 107 105 104 105 103 99 97 96
144 204 174 114 135 315 245 226 57 229 235 253 157 158 136 148 140 31 140 123 178 130 148 140 154 106 117 94 106 111 121 121 126 128 138 140 141 141 135 134 136 137 136 139 144 144 147 153 151 149 150 150 147 148 147 147 145 143 143 142 146 147 143 136 137 137 139 136 137 136 137 135 134 131 129 126 124 123 120 117 116 114 114 111 110 110 111 111 110 109 109 109 108 106 97 92 90
204 72 212 90 61 260 3 316 95 185 168 163 99 124 91 56 59 29 328 154 185 142 118 115 97 111 109 91 69 113 123 131 137 140 144 145 144 135 129 132 136 137 137 139 140 140 145 155 152 151 152 149 147 148 149 147 145 142 143 144 144 140 137 137 137 136 136 136 137 138 136 133 134 131 131 127 123 122 123 122 119 117 116 115 111 109 109 111 111 111 112 112 109 107 107 106 104
240 206 160 83 217 166 250 281 358 97 140 147 85 80 14 128 167 118 304 150 145 128 133 138 126 119 97 115 125 131 135 142 142 143 146 144 136 127 128 133 133 133 135 138 139 145 152 149 149 152 151 149 150 150 149 147 143 143 143 141 140 140 139 139 137 137 136 137 136 134 134 134 134 134 131 129 126 123 123 122 119 119 119 116 113 112 111 113 116 114 114 111 107 105 104 97 92
213 143 141 117 224 174 252 247 93 117 74 41 110 17 72 84 56 104 110 2 148 134 142 133 127 116 114 123 134 132 146 149 147 149 143 141 128 127 127 129 132 133 136 137 144 147 145 145 145 152 152 151 151 148 145 147 142 143 143 141 142 141 141 141 141 137 135 134 133 130 132 133 134 133 135 133 131 128 126 125 126 122 118 116 114 111 110 109 108 112 116 109 108 107 105 100 90
175 190 133 256 229 238 235 239 97 90 39 246 122 135 92 37 50 64 83 89 214 132 123 131 126 115 106 115 141 150 151 154 156 147 143 131 124 125 128 131 134 134 138 142 141 143 144 142 145 143 143 147 136 146 148 146 144 145 144 143 144 144 145 142 140 136 136 136 136 135 135 133 133 134 134 134 132 130 129 129 129 126 126 121 116 114 112 111 108 105 103 103 101 103 102 94 93
240 140 78 165 269 246 229 64 56 84 192 237 152 141 112 71 132 69 93 109 351 128 130 113 129 116 172 149 157 166 157 161 151 143 134 121 123 126 131 133 130 134 137 141 140 142 144 145 143 141 150 139 142 140 146 148 147 147 145 145 146 148 141 142 141 140 141 141 138 139 136 133 132 133 133 133 134 132 132 132 134 134 131 125 120 115 113 111 108 107 107 104 103 101 96 92 94
185 98 86 24 315 329 290 106 107 117 186 197 133 145 107 87 278 100 64 95 304 296 151 136 201 37 164 174 153 152 157 148 142 138 125 125 125 128 130 128 132 136 140 139 142 144 145 144 141 147 136 136 140 137 141 146 150 149 148 147 147 143 144 143 143 144 144 141 138 137 136 133 131 127 128 128 133 133 133 136 140 138 130 124 119 115 112 111 110 108 103 101 99 99 98 99 97
130 80 312 19 308 46 263 145 153 121 138 122 158 150 151 115 245 56 107 97 175 334 198 152 191 121 155 146 145 146 148 141 140 132 130 130 133 131 129 134 135 143 147 149 146 149 149 146 145 139 140 141 142 141 143 149 159 150 148 146 146 146 146 146 147 150 141 137 137 130 109 97 112 129 124 126 133 132 139 143 142 133 125 119 116 114 111 111 111 107 102 100 101 91 92 95 89
147 221 192 265 226 219 226 181 164 136 130 142 167 155 121 123 155 111 145 95 29 86 53 93 109 121 133 134 142 149 144 145 143 137 140 137 138 137 141 146 148 153 154 159 156 152 149 149 146 144 144 145 146 144 151 150 155 144 146 146 144 149 149 148 145 128 117 122 132 112 104 105 98 108 124 132 133 137 141 140 137 129 124 121 118 116 114 113 111 108 104 104 100 106 99 53 55
180 203 185 250 193 234 166 126 129 126 134 132 127 119 97 111 136 185 146 142 145 120 130 130 127 117 127 141 149 151 147 147 145 144 143 143 145 145 149 151 156 152 158 159 157 160 156 150 150 151 150 151 147 151 152 150 138 139 150 154 157 155 153 146 140 116 109 121 118 131 129 118 103 106 112 140 138 140 143 140 134 129 127 124 121 118 117 115 113 107 98 89 79 73 69 100 104
197 159 223 244 212 232 123 147 154 125 138 139 139 133 89 119 117 178 104 122 157 158 159 149 138 140 145 150 154 151 150 148 149 147 146 147 147 149 150 156 158 163 160 162 158 158 159 157 157 155 155 154 152 157 144 134 141 147 159 166 162 154 146 147 124 129 135 139 137 131 136 137 127 141 149 145 140 127 142 139 137 135 133 130 120 103 114 114 98 87 84 69 55 58 49 26 47
179 204 213 240 184 131 215 141 130 133 138 136 119 131 106 154 133 148 130 119 204 195 228 161 150 150 150 154 156 155 151 153 151 148 148 149 149 151 155 159 161 161 159 150 155 163 163 161 159 156 154 158 158 160 150 151 155 154 171 175 168 157 145 138 132 138 144 140 135 133 145 150 138 123 91 99 97 120 70 58 62 67 60 68 98 88 68 81 74 47 23 39 48 45 50 43 38
276 215 227 231 151 146 180 162 144 138 123 114 123 138 157 150 89 112 146 146 191 194 209 162 152 153 153 158 157 154 153 155 154 151 153 153 152 152 155 154 155 153 150 156 164 161 165 166 163 154 156 166 169 165 161 163 160 172 182 182 165 158 143 150 144 146 140 145 157 141 132 131 125 124 124 126 113 93 90 92 86 77 79 90 90 98 96 101 88 91 79 58 32 44 55 63 49
244 264 239 222 189 163 165 152 157 137 142 136 150 126 112 161 143 150 155 165 211 314 198 158 160 156 155 155 156 155 155 157 157 155 154 153 152 155 158 159 158 158 159 159 160 161 164 167 161 157 164 167 169 165 165 166 174 181 182 176 161 170 165 154 152 122 97 84 129 140 136 143 134 132 128 125 124 119 129 123 112 88 104 124 90 108 129 113 130 144 119 107 41 53 45 43 45
233 259 230 222 203 169 172 156 157 142 138 156 133 118 136 171 148 158 170 204 182 254 173 157 157 151 154 157 161 155 156 158 159 156 156 155 155 158 159 159 156 153 155 157 161 164 167 168 161 164 167 167 162 170 170 173 180 179 182 181 174 184 163 153 119 127 123 98 118 146 133 147 141 131 124 128 141 142 154 137 108 98 80 83 88 131 127 114 121 109 134 116 71 47 36 31 21
234 243 244 238 201 147 168 154 155 149 140 133 124 149 169 183 133 112 198 188 214 250 163 151 157 153 157 158 158 150 152 155 157 156 152 153 154 152 155 151 151 156 158 161 160 164 170 163 163 169 170 167 166 170 174 179 180 179 182 183 181 187 160 151 140 144 144 146 151 150 147 144 143 135 132 136 131 141 128 112 95 95 74 69 108 96 117 124 103 104 106 100 80 57 39 28 11
227 236 236 216 182 150 164 157 160 157 148 146 141 153 134 90 76 227 147 189 167 307 162 154 155 155 160 163 161 154 156 158 157 159 155 154 153 154 160 158 155 164 165 160 162 167 166 162 168 171 173 171 169 170 179 178 186 181 185 187 186 177 167 145 143 157 161 154 171 181 194 162 166 150 142 140 139 145 139 128 94 72 83 52 125 156 164 134 136 128 104 88 68 63 70 328 30
286 298 272 216 187 148 165 164 167 162 152 155 134 133 150 146 182 207 187 164 137 124 161 156 155 159 163 165 165 162 157 159 162 155 151 155 155 160 161 159 161 163 160 163 166 166 164 164 171 172 173 173 170 176 177 186 186 189 183 183 184 180 163 146 150 161 165 177 176 181 184 179 155 143 147 148 129 150 155 144 121 109 330 277 174 159 156 159 150 152 143 122 122 132 147 273 352
293 284 288 275 193 167 165 167 160 160 145 158 137 139 143 149 251 200 160 156 139 123 144 155 161 161 165 166 166 166 162 157 159 158 159 160 162 163 163 163 163 160 164 167 168 167 164 169 171 173 174 175 175 178 179 184 192 193 184 178 189 174 160 148 152 171 182 179 164 176 175 181 155 152 147 146 151 161 161 146 154 163 231 184 148 141 125 123 133 123 137 132 146 141 93 359 256
306 312 287 280 133 170 162 170 172 160 146 146 125 107 111 209 223 229 164 149 135 140 157 164 166 163 167 162 164 169 167 163 161 165 168 165 163 164 165 165 164 162 165 165 165 168 169 170 172 175 176 176 178 179 182 185 192 192 181 186 190 156 157 152 163 180 172 163 160 170 176 175 163 153 158 159 168 169 161 149 154 181 177 180 174 131 118 110 97 92 106 113 93 42 32 290 238
329 335 273 292 335 165 176 165 165 151 150 146 137 123 204 203 222 240 172 161 156 160 169 167 170 165 169 161 165 167 170 172 170 167 166 164 168 166 164 166 164 163 158 163 164 171 170 172 171 176 178 180 181 181 180 182 190 194 183 188 171 148 157 162 176 169 162 152 160 173 169 177 155 160 159 174 163 171 149 150 157 158 173 177 109 99 110 131 120 122 129 85 166 136 246 252 203
323 291 331 232 132 268 160 162 166 149 168 161 171 129 205 204 211 213 181 171 166 170 171 170 170 168 173 169 162 169 172 177 179 166 162 166 169 167 164 166 164 163 157 161 170 171 172 171 171 177 181 183 181 178 182 181 191 189 186 186 153 159 156 167 169 165 159 160 165 174 172 178 159 169 171 172 166 162 157 159 170 182 177 159 139 128 133 176 166 149 128 106 9 295 249 262 216
295 17 309 318 165 279 172 162 171 148 183 191 152 113 190 197 207 187 178 172 167 172 168 166 168 170 174 175 165 169 172 175 182 179 161 168 169 166 167 166 166 165 167 165 166 168 175 171 174 176 180 183 183 177 181 181 187 187 188 173 144 158 156 165 168 174 166 162 169 168 180 180 164 178 182 174 169 181 177 180 184 173 169 157 152 157 170 186 168 101 111 131 140 227 232 285 287
339 159 272 298 184 227 143 193 185 167 157 195 205 194 123 203 202 172 174 175 173 167 168 170 169 172 175 177 171 169 171 176 182 183 171 166 170 166 169 166 168 169 169 162 166 170 173 173 176 175 181 182 178 177 174 176 183 182 190 154 150 156 160 166 170 163 162 167 169 171 176 183 173 184 190 182 178 184 181 178 178 176 174 163 171 191 206 195 151 133 163 190 145 169 175 221 256
306 298 201 216 189 235 260 182 190 159 154 190 220 183 201 171 177 168 170 180 172 170 168 170 171 173 176 175 175 173 175 178 183 181 180 168 169 167 169 169 167 168 170 165 168 170 173 173 179 178 178 173 175 170 169 168 177 178 188 150 153 162 162 163 164 165 171 174 171 174 174 182 172 190 191 188 193 186 172 170 175 173 172 173 176 190 219 192 183 145 167 199 166 214 181 199 226
240 297 274 293 282 218 221 142 196 167 176 172 202 219 201 174 169 169 172 174 170 171 168 171 171 172 172 174 179 177 178 183 185 180 179 170 167 168 167 168 166 167 170 166 168 170 168 172 178 181 169 171 172 166 161 155 160 171 183 150 155 162 159 160 164 169 174 171 177 173 173 177 174 187 191 194 195 183 161 169 178 172 170 172 168 185 201 189 181 172 155 202 195 220 234 222 208
226 239 243 285 282 278 244 190 179 175 184 184 188 195 182 172 168 169 172 174 175 175 166 170 173 173 171 173 179 181 179 185 184 180 178 172 167 167 166 167 166 168 169 166 166 167 168 171 177 179 171 169 169 161 155 147 154 167 179 163 149 166 171 163 172 174 168 172 175 173 178 176 178 183 187 192 194 174 168 168 172 158 159 154 160 172 197 196 195 188 233 194 303 309 242 239 218
292 294 300 283 292 281 276 254 182 185 175 193 192 180 173 175 171 171 171 170 176 176 177 169 174 172 175 175 178 179 180 184 180 182 178 174 166 169 165 166 167 167 168 167 165 168 170 171 175 180 177 167 173 166 166 159 162 174 180 180 179 179 176 168 173 176 174 178 171 175 180 180 179 179 180 183 185 174 164 156 145 163 155 162 171 192 192 197 195 181 204 200 205 263 283 256 240
266 277 292 293 277 275 274 278 176 184 174 207 194 174 181 176 169 170 170 169 179 180 181 177 177 172 176 178 180 179 176 176 175 181 182 176 169 167 166 168 165 167 171 167 168 170 170 172 176 177 171 173 179 173 173 170 173 178 174 181 177 170 175 165 173 181 182 179 174 173 178 178 178 177 174 180 174 162 161 161 166 170 166 170 188 203 181 188 193 203 172 212 239 216 259 208 163
248 250 267 282 268 270 280 259 173 190 207 194 186 184 184 177 170 172 177 178 181 182 182 180 177 173 175 180 180 178 168 173 176 181 181 180 172 167 169 171 169 169 169 171 169 167 169 173 177 174 175 174 182 173 171 176 178 179 171 180 173 160 185 173 172 182 175 176 181 178 177 176 176 182 173 174 170 168 169 164 180 174 166 172 168 191 153 184 201 207 160 160 336 266 248 232 156
236 253 260 247 257 268 295 127 83 145 211 208 188 181 176 176 177 180 182 177 180 183 183 183 181 177 175 179 179 178 175 172 176 178 180 178 174 169 170 172 170 168 169 171 169 169 171 174 177 174 176 175 179 179 174 179 180 179 176 172 172 161 169 166 168 161 172 167 181 182 183 178 179 180 177 174 173 166 170 179 172 179 176 181 170 173 190 216 237 241 152 160 139 10 357 309 153
238 232 236 250 258 249 216 285 328 319 303 170 124 54 64 180 177 193 192 179 166 179 183 189 195 187 177 175 176 177 179 176 175 176 178 177 175 173 174 172 168 171 173 172 171 172 174 175 176 174 174 177 180 177 175 165 157 160 162 125 119 102 79 126 143 162 179 183 172 177 194 183 183 181 179 179 171 171 178 174 176 185 169 181 165 174 206 216 212 219 189 156 139 148 339 327 323
253 234 225 237 246 254 265 270 308 4 345 129 138 46 248 224 201 188 177 180 182 182 181 190 191 189 174 174 179 182 182 180 178 179 178 179 176 172 172 172 172 174 176 174 173 172 170 174 174 175 173 176 180 178 173 165 168 170 164 160 169 187 165 150 175 182 186 181 192 195 183 186 185 185 185 183 175 173 179 183 177 175 178 180 185 191 207 225 222 239 224 182 179 222 166 40 315
236 252 220 232 238 248 257 269 286 344 91 245 126 159 201 224 218 208 187 188 185 183 191 189 188 187 183 183 179 180 181 182 182 180 179 175 178 172 174 175 175 177 179 172 172 172 170 171 174 175 175 176 179 179 176 171 168 175 179 181 184 182 182 190 185 180 177 189 179 185 191 187 189 186 190 184 183 181 179 180 179 185 182 191 186 178 209 217 218 219 227 184 205 184 124 217 215
238 247 244 241 256 258 257 255 196 222 215 107 118 108 116 175 238 224 198 188 188 195 198 191 192 190 189 187 182 180 181 181 181 183 182 179 180 177 177 179 176 179 174 172 173 172 171 171 174 177 176 177 179 178 181 179 177 178 181 183 185 189 193 174 181 179 178 174 176 191 185 193 192 192 188 190 189 184 178 185 180 183 185 196 187 195 211 220 220 238 218 223 185 178 167 176 204
220 250 253 257 250 255 266 252 242 188 135 300 222 85 87 190 222 205 178 187 203 209 200 196 194 195 192 190 186 183 181 180 180 183 184 181 182 181 177 179 179 174 174 175 175 174 172 171 172 176 178 178 181 179 181 186 182 182 183 180 184 200 197 172 171 169 174 179 178 188 188 195 194 199 196 191 195 191 184 186 181 185 191 196 200 206 219 214 211 212 214 207 185 211 198 190 131
244 242 259 267 278 269 244 258 223 235 124 209 224 163 182 263 228 169 187 200 207 213 204 198 195 194 192 192 191 187 183 181 183 184 185 185 182 182 180 177 175 176 177 176 175 171 172 170 173 175 180 181 181 181 182 186 188 183 183 186 185 194 198 170 155 173 181 176 184 188 190 192 197 199 208 202 194 195 190 187 182 185 196 199 204 209 212 217 220 219 211 199 185 199 197 174 172
227 235 245 269 293 302 335 110 126 66 181 243 203 191 187 250 224 174 176 205 207 206 202 201 197 197 196 197 193 188 186 185 184 184 185 186 184 179 176 177 177 175 176 176 175 172 172 174 175 178 181 180 181 183 181 186 188 189 191 186 188 189 194 179 163 179 181 179 187 192 189 197 194 200 197 210 202 193 189 188 186 187 194 201 205 201 206 210 216 215 217 198 180 188 189 178 219
227 200 243 308 308 347 12 336 43 223 269 262 201 193 175 205 289 212 199 212 209 195 194 192 192 194 194 195 196 191 189 187 185 184 186 183 182 179 177 178 176 176 174 178 177 174 175 177 178 180 180 181 182 183 183 186 188 194 196 187 189 191 188 187 182 182 185 186 188 190 193 187 199 201 199 205 209 201 189 189 190 185 191 203 208 202 204 209 213 208 208 200 198 199 176 175 194
216 207 53 160 275 349 296 7 276 218 206 240 181 106 125 231 210 195 213 217 217 209 204 193 190 192 193 194 195 191 189 186 186 186 184 184 182 182 180 179 175 175 178 179 178 176 177 179 179 179 184 183 183 183 185 186 189 193 196 193 192 190 191 191 190 187 186 185 188 188 180 193 193 191 202 204 210 201 192 188 190 192 196 204 207 198 209 208 210 199 200 200 197 188 191 185 191
71 210 144 100 131 225 238 277 206 301 296 262 195 145 215 240 270 215 211 219 214 204 215 213 197 193 193 194 190 190 191 190 188 186 185 185 184 184 182 180 177 178 179 180 179 178 179 181 181 182 185 185 183 183 186 187 192 195 197 196 192 189 195 192 191 191 188 184 182 187 188 190 191 197 194 202 203 197 195 195 190 195 200 204 209 200 202 202 198 191 191 198 199 202 182 189 202
266 178 165 179 149 163 227 199 221 218 217 279 338 88 233 139 251 204 205 218 211 205 204 202 203 199 198 191 187 188 190 191 191 189 187 185 184 182 183 182 179 178 180 181 180 181 180 182 182 186 184 186 184 186 186 189 191 194 197 201 195 189 194 195 194 193 188 182 182 184 191 189 193 199 197 201 195 194 196 192 192 191 201 207 208 213 194 191 193 192 190 202 198 193 191 192 215
275 186 84 80 229 143 168 207 142 250 339 336 341 188 185 182 236 243 214 206 209 208 208 201 195 196 188 180 187 193 193 192 190 193 191 188 184 181 182 182 181 179 180 182 183 181 183 184 184 186 185 184 187 186 189 191 193 192 195 198 202 196 195 195 196 196 195 191 183 183 189 191 197 196 199 188 197 192 191 193 193 194 196 204 206 209 190 186 183 187 195 196 201 197 191 198 221
301 12 225 221 204 143 153 323 246 136 57 258 234 316 297 291 302 254 193 218 203 202 208 204 194 187 179 187 190 193 194 191 193 194 193 190 184 183 183 183 182 180 180 184 185 184 184 183 185 186 185 184 186 188 190 193 193 193 197 199 200 201 197 196 197 198 198 197 190 187 185 194 193 194 193 192 192 195 193 190 192 195 194 198 203 207 192 187 174 178 187 194 204 201 187 204 217
357 357 327 298 225 130 123 203 322 94 156 255 243 240 299 15 288 296 185 179 209 204 208 202 197 179 182 191 189 193 193 196 195 195 195 193 189 185 184 184 183 182 182 185 186 185 184 183 184 185 184 186 189 188 191 191 192 195 198 200 202 202 201 202 201 199 199 196 198 194 188 182 192 195 192 192 191 193 196 194 192 196 195 193 198 200 190 185 179 182 185 190 200 190 193 206 213
90 254 269 16 336 7 323 92 264 279 238 254 291 250 272 179 261 304 290 234 198 211 209 210 193 183 189 191 192 193 194 191 192 195 191 193 194 189 187 187 186 186 184 185 185 183 183 184 185 185 186 188 187 189 191 192 192 195 198 200 201 203 205 206 204 202 198 200 201 200 197 195 192 192 192 190 191 196 195 198 195 197 194 196 195 198 192 186 184 187 192 198 199 182 188 200 217
1 4 10 333 273 66 6 198 186 121 246 43 291 8 237 241 237 251 257 269 257 193 209 206 196 187 192 191 191 194 192 191 195 191 188 190 192 192 190 187 187 188 186 184 181 181 183 185 184 188 188 186 187 189 189 192 194 195 198 200 204 205 206 206 205 199 201 204 204 201 203 201 199 192 195 193 193 196 197 198 198 197 197 197 196 199 194 192 189 195 193 199 208 194 194 201 212
340 358 356 2 357 264 194 290 237 192 191 182 192 328 280 330 302 338 334 327 312 295 205 216 202 193 193 189 190 192 190 194 196 192 190 187 190 192 191 189 189 189 187 182 181 183 185 183 186 186 187 188 190 192 190 193 191 196 196 198 201 202 207 209 209 205 205 206 205 204 203 204 198 200 196 197 198 198 199 202 199 199 199 197 198 198 198 192 193 199 201 202 204 205 207 212 205
260 182 44 352 359 7 16 304 334 6 36 214 196 238 253 30 4 0 343 342 336 322 271 199 216 201 191 190 192 187 188 193 190 192 195 191 186 189 191 190 187 185 185 185 184 184 183 186 187 187 188 190 191 193 193 192 193 195 197 198 200 201 204 206 209 209 209 207 206 205 204 203 201 204 198 202 204 204 201 201 203 203 201 201 200 200 198 193 196 200 204 201 204 205 210 217 204